Home   Weather   Halifax   Past weeks

Flag for Canada Past Weather in Halifax, Nova Scotia, Canada — Yesterday and Last 2 Weeks

Now
61 °F

Passing clouds.


Feels Like: 61 °F
Forecast: 58 / 71 °F
Wind: 8 mph from Northwest

Location: Halifax International Airport

Current Time: Jul 23, 2017 at 2:04:22 am

Latest Report: Jul 23, 2017 at 1:00 am


Visibility: 15 mi

Pressure: 29.77 "Hg

Humidity: 77%

Dew Point: 54 °F

Location of HalifaxLocation

Past Weather in Halifax — Graph

°F

Halifax Temperature Yesterday

Maximum temperature yesterday: 73 °F (at 3:00 pm)
Minimum temperature yesterday: 64 °F (at 2:00 am)
Average temperature yesterday: 68 °F

High & Low Weather Summary for the Past Weeks

 TemperatureHumidityPressure
High84 °F (Jul 20, 5:00 pm)100% (Jul 8, 12:05 am)30.21 "Hg (Jul 8, 12:05 am)
Low50 °F (Jul 14, 4:00 am)38% (Jul 22, 5:00 pm)29.62 "Hg (Jul 8, 10:09 am)
Average66 °F83%29.94 "Hg
* Reported Jul 8 12:05 am — Jul 23 12:00 am, Halifax. Weather by CustomWeather, © 2017

Note: Actual official high and low records may vary slightly from our data, if they occured in-between our weather recording intervals... More about our weather records

Advertising

Halifax Weather History for the Previous 24 Hours

Scroll right to see more
 ConditionsComfort  
Time TempWeatherWind HumidityBarometerVisibility
12:00 am
Sun, Jul 23
64 °FPassing clouds.7 mph64%29.76 "Hg15 mi
11:00 pm
Sat, Jul 22
66 °FPassing clouds.7 mph60%29.76 "Hg15 mi
10:00 pm66 °FPassing clouds.7 mph56%29.76 "Hg15 mi
9:00 pm66 °FPassing clouds.8 mph56%29.74 "Hg15 mi
8:00 pm70 °FPassing clouds.12 mph46%29.73 "Hg15 mi
7:00 pm72 °FPassing clouds.17 mph44%29.73 "Hg15 mi
6:00 pm73 °FPassing clouds.18 mph41%29.73 "Hg15 mi
5:00 pm73 °FBroken clouds.22 mph38%29.72 "Hg15 mi
4:00 pm73 °FBroken clouds.21 mph44%29.72 "Hg15 mi
3:00 pm73 °FPartly sunny.15 mph41%29.73 "Hg15 mi
2:00 pm72 °FPartly sunny.18 mph41%29.73 "Hg15 mi
1:00 pm72 °FPartly sunny.13 mph50%29.73 "Hg15 mi
12:00 pm72 °FPartly sunny.14 mph50%29.73 "Hg15 mi
11:00 am70 °FScattered clouds.15 mph60%29.73 "Hg15 mi
10:00 am68 °FScattered clouds.18 mph69%29.73 "Hg15 mi
9:00 am66 °FPassing clouds.22 mph78%29.71 "Hg15 mi
8:00 am64 °FPassing clouds.16 mph88%29.70 "Hg12 mi
7:00 am64 °FScattered clouds.13 mph94%29.68 "Hg12 mi
6:00 am64 °FBroken clouds.6 mph94%29.67 "Hg12 mi
5:00 am64 °FPassing clouds.7 mph94%29.66 "Hg15 mi
4:00 am64 °FPassing clouds.9 mph100%29.66 "Hg15 mi
3:00 am64 °FOvercast.7 mph94%29.67 "Hg15 mi
2:00 am64 °FOvercast.9 mph94%29.68 "Hg15 mi
Weather by CustomWeather, © 2017

See weather overviewHow to use our weather pages